Cosmos 1340 Rocket - Orbit

View from above orbital plane
View from above orbital plane
View from above satellite
View from above satellite

Ground track
Ground track

The orbit data is extracted from the following two-line orbital elements,

1 13068U 82013B   13139.17514477  .00001438  00000-0  10566-3 0  1343
2 13068 081.2040 119.0219 0023979 180.4692 179.6511 15.02641729699346
Epoch (UTC): 19 May 2013 04:12:12
Eccentricity: 0.0023979
inclination: 81.2040°
perigee height: 542 km
apogee height: 575 km
right ascension of ascending node: 119.0219°
argument of perigee: 180.4692°
revolutions per day: 15.02641729
mean anomaly at epoch: 179.6511°
orbit number at epoch: 69934

The dashed part of the orbit path shows where the satellite is in the earth's shadow,  

Developed and maintained by Chris Peat, Heavens-Above GmbH. Please read the updated FAQ before sending e-mail. Imprint. DLR